Probability
3 4 4 4 4 4 4 5 5 3 2 2 3 2 1 0 0 0 0 0 0 0 0 0 0 0 0 0 0 1 2 2 3 3 3 3 4 5
4 4 5 5 4 4 4 4 4 4 3 3 3 3 1 0 0 0 0 0 0 0 0 0 0 0 0 0 0 0 1 1 2 2 3 3 3 3
6 6 7 6 5 4 4 4 4 5 5 4 3 3 2 1 1 0 0 0 0 0 0 0 0 0 0 0 0 0 0 0 0 1 2 3 2 1
6 6 7 7 6 4 3 3 4 4 5 5 4 3 3 2 1 0 0 0 0 0 0 0 0 0 0 0 0 0 0 0 0 1 2 2 1 0
5 6 6 6 5 3 2 2 2 3 3 3 3 3 3 3 1 1 1 0 0 0 0 0 0 0 0 0 0 0 0 0 0 1 1 1 0 0
7 6 5 4 3 2 1 1 1 1 1 1 1 1 2 2 2 2 2 1 0 0 0 0 0 0 0 0 0 0 0 0 0 0 0 0 0 0
7 6 5 4 2 1 0 0 0 0 0 0 0 0 1 1 2 3 3 2 1 0 0 0 0 0 0 0 0 0 0 0 0 0 0 0 0 0
6 6 6 4 2 0 0 0 0 0 0 0 0 0 0 0 1 2 2 2 1 1 1 0 0 0 0 0 0 0 0 0 0 0 0 0 0 0
8 8 6 4 1 0 0 0 0 0 0 0 0 0 0 0 0 1 1 1 1 1 2 1 0 0 0 0 0 0 0 0 0 0 0 0 0 0
9 8 6 3 1 0 0 0 0 0 0 0 0 0 0 0 0 0 0 0 0 1 1 1 0 0 0 0 0 0 0 0 0 0 0 0 0 0
8 6 3 1 0 0 0 0 0 0 1 1 1 0 0 0 0 0 0 0 0 0 0 0 0 0 0 0 0 0 0 0 0 0 0 0 0 0
6 5 2 0 0 0 0 0 0 0 1 1 1 1 1 1 1 1 1 1 0 0 0 0 0 0 1 0 0 0 0 0 0 0 0 0 0 0
5 4 2 1 0 0 0 0 0 0 0 1 1 1 2 2 2 1 2 2 1 2 2 1 0 0 0 0 0 0 0 0 0 0 0 0 0 0
4 3 2 1 0 0 0 0 0 0 0 0 0 1 1 2 2 1 2 2 2 3 3 2 1 0 0 0 0 0 0 0 0 0 0 0 0 0
3 3 2 1 0 0 0 0 0 0 0 0 0 0 1 1 1 2 2 1 1 3 3 2 1 0 0 0 0 0 0 0 0 0 0 0 0 0
2 2 1 0 0 0 0 0 0 0 0 0 0 0 1 0 0 1 2 1 1 2 2 1 0 0 0 0 0 0 0 0 0 0 0 0 0 0
1 1 0 0 1 1 1 1 0 0 0 0 0 0 1 1 0 0 1 2 2 3 2 1 0 0 0 0 0 0 0 0 0 0 0 0 0 0
0 0 0 0 1 1 2 1 1 1 1 0 1 1 1 1 0 0 1 2 3 3 3 2 1 0 0 0 0 0 0 0 0 0 0 0 0 0
0 0 0 0 0 1 1 1 1 2 1 1 1 1 1 1 0 0 0 1 2 3 3 2 1 0 1 1 0 0 0 0 0 0 0 0 0 0
0 0 0 0 0 0 0 0 1 1 1 1 1 1 0 0 0 0 0 0 1 2 3 3 1 1 2 1 0 0 0 0 0 0 0 0 0 0
0 0 0 0 0 0 0 0 0 0 0 0 0 0 0 0 0 0 0 0 0 1 2 3 2 2 2 2 1 0 0 0 0 0 0 0 0 0
0 0 0 0 0 0 0 0 0 0 0 0 0 0 0 0 0 0 0 0 0 0 1 3 3 2 2 2 2 1 0 0 0 0 0 0 0 0
0 0 0 0 0 0 0 0 0 0 0 0 0 0 0 0 0 0 0 0 0 0 1 2 3 3 3 3 2 1 0 0 0 0 0 0 0 0
Wind_Speed
2 2 2 1 2 2 2 3 3 2 2 1 0 0 1 1 2 2 2 4 5 5 5 5 5 5 5 5 5 5 5 6 6 5 5 4 4 4
1 1 1 1 1 2 2 2 2 3 2 1 1 0 0 1 2 2 2 4 5 4 4 4 4 4 4 4 4 4 5 5 5 5 5 5 5 5
0 1 1 1 1 1 2 2 2 2 2 1 0 1 1 1 1 1 2 2 2 3 3 3 4 4 4 3 3 4 4 4 4 4 4 5 5 5
1 1 1 1 1 1 2 2 2 3 3 3 1 1 1 1 1 1 1 1 1 2 3 3 3 3 3 3 3 3 2 3 3 4 5 5 6 6
2 1 1 1 1 1 2 2 2 2 2 3 2 1 1 1 1 0 1 1 1 1 2 2 2 3 3 3 3 3 2 2 3 4 4 5 5 5
1 1 2 2 3 3 2 2 3 3 3 3 2 1 1 1 1 1 0 0 0 0 1 1 1 2 2 2 2 2 2 3 3 3 3 4 4 4
1 1 1 2 3 3 3 3 4 3 3 3 2 2 2 2 2 1 1 0 1 1 0 0 0 0 0 0 1 1 2 2 2 3 3 3 3 3
2 1 1 1 2 3 4 4 5 5 5 3 3 3 3 3 2 2 1 1 1 1 1 1 1 2 2 2 2 2 3 3 3 3 3 3 3 3
3 2 1 1 1 2 2 3 4 5 7 5 5 5 4 4 4 3 3 3 2 1 2 2 1 2 2 2 4 4 4 4 4 4 4 4 3 3
3 3 2 2 2 2 2 2 2 3 4 4 5 5 4 4 5 4 3 2 1 1 2 2 2 2 2 3 4 5 5 5 5 5 5 4 4 3
2 2 3 3 3 4 3 3 2 1 2 3 3 3 4 5 5 3 3 2 2 2 3 2 2 2 2 2 3 5 6 6 6 5 5 5 5 4
1 2 3 3 3 4 4 3 3 2 1 1 1 2 3 5 7 6 5 3 2 2 3 3 2 1 2 2 2 2 3 5 6 6 6 6 6 4
2 2 2 3 3 4 4 3 4 3 2 2 2 2 2 2 3 4 4 4 4 3 3 4 3 2 2 1 1 2 2 3 3 4 6 6 7 6
3 2 2 3 4 4 3 4 4 3 2 2 2 2 2 3 3 3 4 5 4 5 4 4 3 3 3 2 2 2 2 2 3 3 3 4 6 7
2 3 3 4 3 2 3 4 4 3 3 2 3 3 2 3 2 2 2 3 3 3 3 4 4 3 4 3 3 2 2 2 3 3 3 4 4 4
2 2 2 2 1 1 1 2 3 3 3 3 3 2 2 2 2 2 2 2 2 2 2 4 4 5 4 4 3 3 3 3 3 3 3 4 4 5
2 1 1 1 1 1 1 1 1 2 3 3 3 2 2 2 2 2 2 2 3 3 2 1 2 3 4 4 4 4 4 3 3 3 3 4 5 5
4 2 2 2 3 3 3 2 2 3 3 3 3 3 3 3 2 2 2 3 4 4 3 2 1 1 1 3 6 5 4 4 3 3 4 4 5 5
3 3 3 3 4 3 3 3 3 3 3 3 3 3 3 3 3 3 3 3 4 4 3 2 3 3 3 4 4 7 5 4 3 3 4 5 5 5
3 4 4 4 4 4 4 4 3 3 3 3 3 3 3 3 4 4 4 4 4 4 3 3 4 5 6 5 3 3 8 6 4 4 4 4 4 3
4 4 4 4 4 4 4 4 4 3 4 3 4 4 4 4 4 4 4 5 5 4 5 5 5 6 3 2 3 3 3 7 7 5 4 3 3 3
4 5 4 4 4 4 4 4 4 4 4 4 4 4 4 5 5 5 5 5 5 5 6 4 2 3 4 5 6 5 4 3 5 6 7 6 4 5
5 5 4 5 5 4 4 5 5 4 4 4 4 4 5 5 5 5 5 6 5 5 5 4 3 3 4 5 6 5 6 4 3 3 4 5 7 8
Wind_Direction
201 203 213 222 198 193 178 174 170 195 230 199 197 31 32 60 62 67 66 72 73 69 69 72 74 75 76 75 76 84 94 94 93 90 86 83 76 80
188 190 214 217 193 183 178 177 178 180 198 194 201 203 130 86 73 73 74 77 75 70 72 74 76 77 79 82 85 89 97 100 102 103 96 90 86 82
156 184 213 179 173 180 175 175 171 162 176 208 170 149 126 111 70 70 66 66 72 74 74 76 77 77 79 79 82 90 96 103 110 110 104 95 89 87
225 196 224 175 163 175 175 179 176 170 171 180 176 149 137 160 133 106 78 88 92 82 83 84 85 85 83 82 81 80 94 106 110 109 103 98 94 90
224 214 229 180 182 182 177 176 173 159 151 156 162 139 122 138 119 93 79 42 82 87 83 80 83 84 82 79 80 82 90 105 111 108 103 99 97 97
215 211 215 200 203 191 178 177 166 154 145 144 143 134 137 161 163 171 198 100 270 90 72 77 81 89 91 93 100 107 112 111 109 105 105 105 102 98
197 228 219 193 190 193 182 178 169 166 159 158 154 151 166 178 198 203 208 234 256 237 254 307 311 277 249 209 171 156 158 161 159 150 143 135 127 119
205 233 226 204 189 187 183 177 174 173 179 179 185 188 201 201 195 184 179 191 240 211 217 248 230 256 253 240 226 212 203 199 196 189 178 171 164 159
206 214 227 229 200 189 183 177 188 188 184 185 190 199 196 194 186 189 197 211 234 188 191 243 233 251 251 241 220 216 211 209 207 204 197 190 186 176
212 203 201 223 212 180 173 174 193 203 202 201 205 210 204 193 191 193 196 210 238 192 186 233 230 244 256 244 226 215 211 208 206 205 203 199 196 195
228 214 202 206 207 177 165 173 193 240 228 214 210 202 190 182 171 158 160 185 235 220 195 225 235 247 250 251 241 223 218 214 212 211 212 211 209 209
233 232 213 203 198 182 176 175 196 233 224 197 189 187 188 185 179 185 187 197 220 232 193 206 214 209 246 236 238 221 216 218 217 218 217 214 207 206
217 226 231 204 197 193 189 198 211 209 205 198 202 200 192 194 197 201 201 202 212 231 194 192 205 204 221 240 237 221 217 217 213 218 219 217 211 206
207 209 208 203 203 200 198 202 197 181 179 187 202 212 215 222 226 225 221 221 227 239 212 192 203 200 196 210 231 225 229 225 216 221 224 214 214 215
208 201 203 201 200 200 201 199 189 181 180 193 215 226 226 230 228 224 221 224 234 235 209 204 204 196 204 212 213 206 219 228 215 220 221 216 213 208
207 191 190 194 174 177 189 196 195 195 195 210 223 228 217 209 213 212 210 203 228 244 220 210 208 202 214 221 214 218 214 223 219 223 226 225 219 214
159 136 137 162 188 208 214 218 219 203 208 218 218 216 216 221 225 208 204 203 219 235 240 221 220 224 227 216 220 228 225 228 227 213 214 230 233 226
147 169 194 208 218 223 226 231 228 226 227 224 221 220 221 225 232 224 212 218 232 238 237 226 181 173 221 239 221 232 234 237 232 210 211 227 242 235
170 202 216 221 225 226 228 231 235 232 221 220 222 223 224 226 229 234 230 232 239 245 243 224 205 203 227 255 239 212 225 232 220 217 219 222 239 242
212 221 226 227 227 229 232 237 240 238 228 224 224 225 226 227 230 234 233 237 241 240 238 224 217 216 225 240 251 238 216 220 219 229 234 233 247 261
222 229 232 231 232 233 235 234 234 232 231 229 229 228 227 227 234 238 238 237 237 236 238 239 236 227 228 217 239 247 236 217 217 223 220 224 237 236
228 233 237 237 233 233 234 231 232 232 231 232 234 232 231 231 236 238 239 239 237 239 243 248 232 207 207 223 242 252 258 254 235 229 223 214 218 225
231 232 235 236 235 233 231 229 228 232 231 233 236 234 232 233 237 238 241 242 241 239 240 240 227 216 222 227 240 249 250 250 249 240 246 239 242 250